Time,TemperatureF,DewpointF,PressureIn,WindDirection,WindDirectionDegrees,WindSpeedMPH,WindSpeedGustMPH,Humidity,HourlyPrecipIn,Conditions,Clouds,dailyrainin,SoftwareType,DateUTC
2013-04-04 00:02:00,43.0,41.0,30.18,NW,310,1.0,5.0,93,0.00,,,1.61,,2013-04-04 05:02:00,
2013-04-04 00:13:00,43.0,41.0,30.18,NW,310,1.0,5.0,93,0.00,,,1.61,,2013-04-04 05:13:00,
2013-04-04 00:23:00,43.0,41.0,30.21,NW,310,1.0,3.0,93,0.00,,,1.61,,2013-04-04 05:23:00,
2013-04-04 00:32:00,43.0,41.0,30.18,NW,312,1.0,3.0,93,0.00,,,1.61,,2013-04-04 05:32:00,
2013-04-04 00:42:00,43.0,41.0,30.18,NW,312,1.0,3.0,93,0.00,,,1.61,,2013-04-04 05:42:00,
2013-04-04 00:52:00,43.0,41.0,30.18,WNW,295,2.0,5.0,93,0.00,,,1.61,,2013-04-04 05:52:00,
2013-04-04 01:02:00,43.0,41.0,30.17,WNW,301,2.0,5.0,93,0.00,,,1.61,,2013-04-04 06:02:00,
2013-04-04 01:12:00,43.0,41.0,30.17,WNW,301,2.0,5.0,93,0.00,,,1.61,,2013-04-04 06:12:00,
2013-04-04 01:22:00,43.0,41.0,30.17,WNW,302,2.0,6.0,93,0.00,,,1.61,,2013-04-04 06:22:00,
2013-04-04 01:32:00,43.0,41.0,30.17,NW,325,1.0,9.0,93,0.00,,,1.61,,2013-04-04 06:32:00,
2013-04-04 01:42:00,43.0,41.0,30.17,NW,325,1.0,9.0,93,0.00,,,1.61,,2013-04-04 06:42:00,
2013-04-04 01:52:00,43.0,41.0,30.17,North,351,2.0,5.0,93,0.00,,,1.61,,2013-04-04 06:52:00,
2013-04-04 02:02:00,42.0,40.0,30.17,NW,323,1.0,7.0,93,0.00,,,1.61,,2013-04-04 07:02:00,
2013-04-04 02:12:00,42.0,40.0,30.17,NW,323,1.0,7.0,93,0.00,,,1.61,,2013-04-04 07:12:00,
2013-04-04 02:22:00,43.0,41.0,30.16,NW,305,2.0,7.0,93,0.00,,,1.61,,2013-04-04 07:22:00,
2013-04-04 02:32:00,42.0,40.0,30.16,WNW,294,1.0,6.0,93,0.00,,,1.61,,2013-04-04 07:32:00,
2013-04-04 02:43:00,42.0,40.0,30.16,WNW,294,1.0,6.0,93,0.00,,,1.61,,2013-04-04 07:43:00,
2013-04-04 02:52:00,42.0,40.0,30.16,WNW,295,3.0,8.0,93,0.00,,,1.61,,2013-04-04 07:52:00,
2013-04-04 03:02:00,42.0,40.0,30.16,WNW,291,3.0,10.0,93,0.00,,,1.61,,2013-04-04 08:02:00,
2013-04-04 03:12:00,42.0,40.0,30.16,WNW,291,3.0,10.0,93,0.00,,,1.61,,2013-04-04 08:12:00,
2013-04-04 03:22:00,42.0,40.0,30.16,WNW,282,2.0,9.0,93,0.00,,,1.61,,2013-04-04 08:22:00,
2013-04-04 03:32:00,42.0,40.0,30.15,NW,308,2.0,6.0,93,0.01,,,1.62,,2013-04-04 08:32:00,
2013-04-04 03:43:00,42.0,40.0,30.15,NW,308,2.0,6.0,93,0.01,,,1.62,,2013-04-04 08:43:00,
2013-04-04 03:52:00,42.0,40.0,30.15,WNW,289,2.0,7.0,93,0.01,,,1.62,,2013-04-04 08:52:00,
2013-04-04 04:02:00,42.0,40.0,30.14,NW,316,2.0,6.0,93,0.01,,,1.62,,2013-04-04 09:02:00,
2013-04-04 04:12:00,42.0,40.0,30.14,NW,316,2.0,6.0,93,0.01,,,1.62,,2013-04-04 09:12:00,
2013-04-04 04:22:00,42.0,40.0,30.14,NW,306,3.0,8.0,93,0.01,,,1.62,,2013-04-04 09:22:00,
2013-04-04 04:33:00,42.0,40.0,30.14,WNW,283,2.0,6.0,93,0.01,,,1.63,,2013-04-04 09:33:00,
2013-04-04 04:43:00,42.0,40.0,30.14,WNW,283,2.0,6.0,93,0.01,,,1.63,,2013-04-04 09:43:00,
2013-04-04 04:52:00,42.0,40.0,30.14,NW,325,2.0,7.0,93,0.01,,,1.63,,2013-04-04 09:52:00,
2013-04-04 05:04:00,42.0,40.0,30.14,WNW,298,2.0,10.0,93,0.01,,,1.63,,2013-04-04 10:04:00,
2013-04-04 05:12:00,42.0,40.0,30.14,WNW,298,2.0,10.0,93,0.01,,,1.63,,2013-04-04 10:12:00,
2013-04-04 05:23:00,41.0,39.0,30.14,West,267,3.0,10.0,93,0.01,,,1.63,,2013-04-04 10:23:00,
2013-04-04 05:33:00,41.0,39.0,30.14,WNW,283,2.0,9.0,93,0.00,,,1.63,,2013-04-04 10:33:00,
2013-04-04 05:42:00,41.0,39.0,30.14,WNW,283,2.0,9.0,93,0.00,,,1.63,,2013-04-04 10:42:00,
2013-04-04 05:53:00,41.0,39.0,30.14,NNW,340,2.0,6.0,93,0.00,,,1.63,,2013-04-04 10:53:00,
2013-04-04 06:02:00,41.0,39.0,30.14,NW,324,1.0,6.0,93,0.00,,,0.46,,2013-04-04 11:02:00,
2013-04-04 06:12:00,41.0,39.0,30.14,NW,324,1.0,6.0,93,0.00,,,0.46,,2013-04-04 11:12:00,
2013-04-04 06:22:00,41.0,39.0,30.14,NW,323,3.0,9.0,93,0.00,,,0.44,,2013-04-04 11:22:00,
2013-04-04 06:32:00,41.0,39.0,30.14,WNW,285,4.0,9.0,93,0.00,,,0.41,,2013-04-04 11:32:00,
2013-04-04 06:42:00,41.0,39.0,30.14,WNW,285,4.0,9.0,93,0.00,,,0.41,,2013-04-04 11:42:00,
2013-04-04 06:52:00,41.0,39.0,30.14,NW,318,2.0,8.0,93,0.00,,,0.40,,2013-04-04 11:52:00,
2013-04-04 07:02:00,41.0,39.0,30.15,West,280,2.0,7.0,93,0.00,,,0.40,,2013-04-04 12:02:00,
2013-04-04 07:12:00,41.0,39.0,30.15,West,280,2.0,7.0,93,0.00,,,0.40,,2013-04-04 12:12:00,
2013-04-04 07:22:00,41.0,39.0,30.16,NW,324,1.0,6.0,93,0.00,,,0.39,,2013-04-04 12:22:00,
2013-04-04 07:32:00,41.0,39.0,30.16,WNW,296,2.0,9.0,93,0.00,,,0.39,,2013-04-04 12:32:00,
2013-04-04 07:43:00,41.0,39.0,30.16,WNW,296,2.0,9.0,93,0.00,,,0.39,,2013-04-04 12:43:00,
2013-04-04 07:52:00,41.0,39.0,30.16,WNW,287,3.0,9.0,93,0.00,,,0.38,,2013-04-04 12:52:00,
2013-04-04 08:02:00,41.0,39.0,30.17,WNW,282,5.0,12.0,93,0.00,,,0.38,,2013-04-04 13:02:00,
2013-04-04 08:12:00,41.0,39.0,30.17,WNW,282,5.0,12.0,93,0.00,,,0.38,,2013-04-04 13:12:00,
2013-04-04 08:22:00,41.0,39.0,30.17,NW,304,3.0,8.0,93,0.00,,,0.38,,2013-04-04 13:22:00,
2013-04-04 08:32:00,41.0,39.0,30.17,WNW,291,2.0,6.0,93,0.00,,,0.38,,2013-04-04 13:32:00,
2013-04-04 08:42:00,41.0,39.0,30.17,WNW,291,2.0,6.0,93,0.00,,,0.38,,2013-04-04 13:42:00,
2013-04-04 08:52:00,42.0,40.0,30.17,NW,317,2.0,7.0,93,0.00,,,0.38,,2013-04-04 13:52:00,
2013-04-04 09:03:00,42.0,40.0,30.18,WNW,294,3.0,12.0,93,0.00,,,0.38,,2013-04-04 14:03:00,
2013-04-04 09:12:00,42.0,40.0,30.18,WNW,294,3.0,12.0,93,0.00,,,0.38,,2013-04-04 14:12:00,
2013-04-04 09:22:00,42.0,40.0,30.18,WNW,303,3.0,9.0,93,0.00,,,0.38,,2013-04-04 14:22:00,
2013-04-04 09:32:00,42.0,40.0,30.19,West,272,4.0,10.0,92,0.00,,,0.38,,2013-04-04 14:32:00,
2013-04-04 09:42:00,42.0,40.0,30.19,West,272,4.0,10.0,92,0.00,,,0.38,,2013-04-04 14:42:00,
2013-04-04 09:52:00,42.0,40.0,30.19,WNW,289,3.0,10.0,92,0.00,,,0.38,,2013-04-04 14:52:00,
2013-04-04 10:02:00,42.0,40.0,30.20,West,272,5.0,10.0,91,0.00,,,0.38,,2013-04-04 15:02:00,
2013-04-04 10:12:00,42.0,40.0,30.20,West,272,5.0,10.0,91,0.00,,,0.38,,2013-04-04 15:12:00,
2013-04-04 10:22:00,43.0,41.0,30.20,NW,325,3.0,12.0,91,0.00,,,0.38,,2013-04-04 15:22:00,
2013-04-04 10:33:00,43.0,40.0,30.21,WNW,283,3.0,9.0,89,0.00,,,0.38,,2013-04-04 15:33:00,
2013-04-04 10:43:00,43.0,40.0,30.21,WNW,283,3.0,9.0,89,0.00,,,0.38,,2013-04-04 15:43:00,
2013-04-04 10:53:00,43.0,40.0,30.21,West,273,3.0,10.0,89,0.00,,,0.38,,2013-04-04 15:53:00,
2013-04-04 11:03:00,43.0,39.0,30.22,NW,307,3.0,9.0,87,0.00,,,0.38,,2013-04-04 16:03:00,
2013-04-04 11:12:00,43.0,39.0,30.22,NW,307,3.0,9.0,87,0.00,,,0.38,,2013-04-04 16:12:00,
2013-04-04 11:23:00,43.0,39.0,30.22,NW,309,3.0,12.0,86,0.00,,,0.38,,2013-04-04 16:23:00,
2013-04-04 11:32:00,43.0,39.0,30.23,NW,310,5.0,12.0,86,0.00,,,0.38,,2013-04-04 16:32:00,
2013-04-04 11:42:00,43.0,39.0,30.23,NW,310,5.0,12.0,86,0.00,,,0.38,,2013-04-04 16:42:00,
2013-04-04 12:03:00,44.0,40.0,30.23,WNW,283,5.0,15.0,85,0.00,,,0.38,,2013-04-04 17:03:00,
2013-04-04 12:13:00,44.0,40.0,30.23,WNW,283,5.0,15.0,85,0.00,,,0.38,,2013-04-04 17:13:00,
2013-04-04 12:22:00,44.0,39.0,30.23,NW,314,3.0,12.0,84,0.00,,,0.38,,2013-04-04 17:22:00,
2013-04-04 12:33:00,44.0,39.0,30.24,West,279,4.0,10.0,84,0.00,,,0.38,,2013-04-04 17:33:00,
2013-04-04 12:42:00,44.0,39.0,30.24,West,279,4.0,10.0,84,0.00,,,0.38,,2013-04-04 17:42:00,
2013-04-04 12:53:00,44.0,39.0,30.24,NW,309,6.0,12.0,83,0.00,,,0.38,,2013-04-04 17:53:00,
2013-04-04 13:02:00,44.0,39.0,30.24,WNW,302,6.0,14.0,83,0.00,,,0.38,,2013-04-04 18:02:00,
2013-04-04 13:12:00,44.0,39.0,30.24,WNW,302,6.0,14.0,83,0.00,,,0.38,,2013-04-04 18:12:00,
2013-04-04 13:22:00,45.0,40.0,30.23,NW,309,6.0,12.0,84,0.00,,,0.38,,2013-04-04 18:22:00,
2013-04-04 13:32:00,47.0,41.0,30.22,WNW,296,6.0,14.0,80,0.00,,,0.38,,2013-04-04 18:32:00,
2013-04-04 13:42:00,47.0,41.0,30.22,WNW,296,6.0,14.0,80,0.00,,,0.38,,2013-04-04 18:42:00,
2013-04-04 13:52:00,46.0,40.0,30.22,NW,304,9.0,17.0,78,0.00,,,0.38,,2013-04-04 18:52:00,
2013-04-04 14:02:00,46.0,40.0,30.20,WNW,291,7.0,13.0,79,0.00,,,0.38,,2013-04-04 19:02:00,
2013-04-04 14:12:00,46.0,40.0,30.20,WNW,291,7.0,13.0,79,0.00,,,0.38,,2013-04-04 19:12:00,
2013-04-04 14:22:00,47.0,41.0,30.20,WNW,287,6.0,12.0,79,0.00,,,0.38,,2013-04-04 19:22:00,
2013-04-04 14:32:00,47.0,41.0,30.20,NW,307,6.0,14.0,78,0.00,,,0.38,,2013-04-04 19:32:00,
2013-04-04 14:42:00,47.0,41.0,30.20,NW,307,6.0,14.0,78,0.00,,,0.38,,2013-04-04 19:42:00,
2013-04-04 14:52:00,47.0,40.0,30.20,WNW,300,9.0,15.0,77,0.00,,,0.38,,2013-04-04 19:52:00,
2013-04-04 15:03:00,48.0,41.0,30.19,NW,314,7.0,13.0,76,0.00,,,0.38,,2013-04-04 20:03:00,
2013-04-04 15:12:00,48.0,41.0,30.19,NW,314,7.0,13.0,76,0.00,,,0.38,,2013-04-04 20:12:00,
2013-04-04 15:22:00,48.0,41.0,30.19,NW,314,7.0,13.0,76,0.00,,,0.38,,2013-04-04 20:22:00,
2013-04-04 15:32:00,48.0,41.0,30.19,NW,314,7.0,13.0,76,0.00,,,0.38,,2013-04-04 20:32:00,
2013-04-04 15:42:00,48.0,41.0,30.19,NW,314,7.0,13.0,76,0.00,,,0.38,,2013-04-04 20:42:00,
2013-04-04 15:52:00,49.0,41.0,30.19,WNW,296,5.0,13.0,75,0.00,,,0.38,,2013-04-04 20:52:00,
2013-04-04 16:02:00,48.0,40.0,30.17,WNW,295,5.0,14.0,75,0.00,,,0.38,,2013-04-04 21:02:00,
2013-04-04 16:12:00,48.0,40.0,30.17,WNW,295,5.0,14.0,75,0.00,,,0.38,,2013-04-04 21:12:00,
2013-04-04 16:22:00,49.0,41.0,30.17,NW,318,3.0,10.0,75,0.00,,,0.38,,2013-04-04 21:22:00,
2013-04-04 16:32:00,49.0,40.0,30.16,WNW,302,7.0,13.0,72,0.00,,,0.38,,2013-04-04 21:32:00,
2013-04-04 16:43:00,49.0,40.0,30.16,WNW,302,7.0,13.0,72,0.00,,,0.38,,2013-04-04 21:43:00,
2013-04-04 16:52:00,49.0,41.0,30.16,NW,305,5.0,12.0,74,0.00,,,0.38,,2013-04-04 21:52:00,
2013-04-04 17:03:00,49.0,41.0,30.16,WNW,299,6.0,14.0,74,0.00,,,0.38,,2013-04-04 22:03:00,
2013-04-04 17:12:00,49.0,41.0,30.16,WNW,299,6.0,14.0,74,0.00,,,0.38,,2013-04-04 22:12:00,
2013-04-04 17:23:00,49.0,41.0,30.16,WNW,285,6.0,15.0,73,0.00,,,0.38,,2013-04-04 22:23:00,
2013-04-04 17:33:00,49.0,41.0,30.16,West,280,3.0,8.0,74,0.00,,,0.38,,2013-04-04 22:33:00,
2013-04-04 17:42:00,49.0,41.0,30.16,West,280,3.0,8.0,74,0.00,,,0.38,,2013-04-04 22:42:00,
2013-04-04 17:52:00,49.0,41.0,30.16,West,281,4.0,12.0,73,0.00,,,0.38,,2013-04-04 22:52:00,
2013-04-04 18:02:00,49.0,41.0,30.16,NW,318,2.0,10.0,74,0.00,,,0.38,,2013-04-04 23:02:00,
2013-04-04 18:12:00,49.0,41.0,30.16,NW,318,2.0,10.0,74,0.00,,,0.38,,2013-04-04 23:12:00,
2013-04-04 18:22:00,49.0,41.0,30.16,NW,310,4.0,10.0,74,0.00,,,0.38,,2013-04-04 23:22:00,
2013-04-04 18:32:00,49.0,41.0,30.17,WNW,295,3.0,9.0,74,0.00,,,0.34,,2013-04-04 23:32:00,
2013-04-04 18:42:00,49.0,41.0,30.17,WNW,295,3.0,9.0,74,0.00,,,0.34,,2013-04-04 23:42:00,
2013-04-04 18:52:00,49.0,41.0,30.17,NW,313,5.0,12.0,74,0.00,,,0.30,,2013-04-04 23:52:00,
2013-04-04 19:02:00,49.0,41.0,30.17,NW,309,5.0,10.0,75,0.00,,,0.22,,2013-04-05 00:02:00,
2013-04-04 19:12:00,49.0,41.0,30.17,NW,309,5.0,10.0,75,0.00,,,0.22,,2013-04-05 00:12:00,
2013-04-04 19:22:00,49.0,41.0,30.17,NW,307,3.0,10.0,74,0.00,,,0.18,,2013-04-05 00:22:00,
2013-04-04 19:32:00,49.0,41.0,30.17,NW,311,2.0,9.0,74,0.00,,,0.14,,2013-04-05 00:32:00,
2013-04-04 19:42:00,49.0,41.0,30.17,NW,311,2.0,9.0,74,0.00,,,0.14,,2013-04-05 00:42:00,
2013-04-04 19:52:00,49.0,41.0,30.17,NW,306,1.0,6.0,75,0.00,,,0.12,,2013-04-05 00:52:00,
2013-04-04 20:02:00,49.0,41.0,30.17,NW,313,2.0,6.0,75,0.00,,,0.08,,2013-04-05 01:02:00,
2013-04-04 20:12:00,49.0,41.0,30.17,NW,313,2.0,6.0,75,0.00,,,0.08,,2013-04-05 01:12:00,
2013-04-04 20:22:00,49.0,41.0,30.17,West,279,2.0,7.0,75,0.00,,,0.06,,2013-04-05 01:22:00,
2013-04-04 20:32:00,49.0,41.0,30.18,West,275,2.0,6.0,75,0.00,,,0.04,,2013-04-05 01:32:00,
2013-04-04 20:42:00,49.0,41.0,30.18,West,275,2.0,6.0,75,0.00,,,0.04,,2013-04-05 01:42:00,
2013-04-04 20:52:00,49.0,42.0,30.18,West,275,1.0,5.0,76,0.00,,,0.04,,2013-04-05 01:52:00,
2013-04-04 21:03:00,49.0,42.0,30.19,West,277,1.0,5.0,76,0.00,,,0.03,,2013-04-05 02:03:00,
2013-04-04 21:12:00,49.0,42.0,30.19,West,277,1.0,5.0,76,0.00,,,0.03,,2013-04-05 02:12:00,
2013-04-04 21:22:00,49.0,42.0,30.19,NW,313,1.0,5.0,76,0.00,,,0.03,,2013-04-05 02:22:00,
2013-04-04 21:32:00,49.0,42.0,30.19,West,280,1.0,5.0,76,0.00,,,0.02,,2013-04-05 02:32:00,
2013-04-04 21:42:00,49.0,42.0,30.19,West,280,1.0,5.0,76,0.00,,,0.02,,2013-04-05 02:42:00,
2013-04-04 21:52:00,49.0,42.0,30.20,WNW,289,2.0,6.0,76,0.00,,,0.02,,2013-04-05 02:52:00,
2013-04-04 22:02:00,49.0,42.0,30.20,WNW,298,2.0,8.0,76,0.00,,,0.02,,2013-04-05 03:02:00,
2013-04-04 22:12:00,49.0,42.0,30.20,WNW,298,2.0,8.0,76,0.00,,,0.02,,2013-04-05 03:12:00,
2013-04-04 22:22:00,49.0,42.0,30.21,WNW,296,1.0,3.0,76,0.00,,,0.02,,2013-04-05 03:22:00,
2013-04-04 22:32:00,48.0,41.0,30.21,West,279,1.0,5.0,76,0.00,,,0.02,,2013-04-05 03:32:00,
2013-04-04 22:43:00,48.0,41.0,30.21,West,279,1.0,5.0,76,0.00,,,0.02,,2013-04-05 03:43:00,
2013-04-04 22:53:00,48.0,41.0,30.21,NW,319,1.0,6.0,76,0.00,,,0.02,,2013-04-05 03:53:00,
2013-04-04 23:02:00,48.0,41.0,30.22,WNW,291,1.0,3.0,77,0.00,,,0.02,,2013-04-05 04:02:00,
2013-04-04 23:12:00,48.0,41.0,30.22,WNW,291,1.0,3.0,77,0.00,,,0.02,,2013-04-05 04:12:00,
2013-04-04 23:22:00,48.0,41.0,30.22,WNW,292,0.0,5.0,77,0.00,,,0.02,,2013-04-05 04:22:00,
2013-04-04 23:32:00,48.0,41.0,30.23,WNW,292,0.0,3.0,77,0.00,,,0.02,,2013-04-05 04:32:00,
2013-04-04 23:42:00,48.0,41.0,30.23,WNW,292,0.0,3.0,77,0.00,,,0.02,,2013-04-05 04:42:00,
2013-04-04 23:52:00,47.0,41.0,30.23,WNW,292,0.0,1.0,78,0.00,,,0.02,,2013-04-05 04:52:00,